Location: Newark
(46.7636°N, 1.8358°W)
Time: 17:38:56
(UTC+00:00)

Vanguard 2 Rocket - Pass Details

Date: 17 October 2019
Orbit: 554 x 3326 km, 32.9° (Epoch: 12 November)

Event Time Altitude Azimuth Distance (km) Brightness Sun altitude
Rises 10:59:02 0° 241° (WSW) 7,033 11.6 32.7°
Reaches altitude 10° 11:03:47 10° 236° (SW) 6,173 11.5 32.9°
Maximum altitude 11:22:34 49° 170° (S) 3,785 12.0 33.6°
Drops below altitude 10° 11:38:00 10° 103° (ESE) 5,170 11.0 33.9°
Sets 11:41:33 0° 98° (E) 5,864 11.2 33.9°
